This is the latest recevied weather packets stored in our database for station/object 9W2SSS-1. If no packets are shown the sender has not sent any weather packets the latest 10 day(s).
| Time | Temp. | Humidity | Pressure | Rain* | Wind** | Luminosity | Snow |
|---|---|---|---|---|---|---|---|
| 1777296184 | 30.56° C | 67% | 1009.3 hPa | - | - | - | - |
| 1777294984 | 30.56° C | 66% | 1009.1 hPa | - | - | - | - |
| 1777293784 | 30.56° C | 67% | 1008.9 hPa | - | - | - | - |
| 1777292583 | 30.56° C | 67% | 1008.6 hPa | - | - | - | - |
| 1777291383 | 31.11° C | 64% | 1008.5 hPa | - | - | - | - |
| 1777290204 | 31.11° C | 64% | 1007.9 hPa | - | - | - | - |
| 1777290183 | 31.11° C | 64% | 1007.9 hPa | - | - | - | - |
| 1777288983 | 31.11° C | 63% | 1007.4 hPa | - | - | - | - |
| 1777287783 | 31.67° C | 62% | 1006.9 hPa | - | - | - | - |
| 1777285386 | 32.22° C | 60% | 1006.6 hPa | - | - | - | - |
| 1777284186 | 32.22° C | 59% | 1006.5 hPa | - | - | - | - |
| 1777282986 | 32.22° C | 61% | 1006.4 hPa | - | - | - | - |
| 1777281786 | 32.22° C | 62% | 1006.5 hPa | - | - | - | - |
| 1777280586 | 32.78° C | 58% | 1006.9 hPa | - | - | - | - |
| 1777279386 | 32.78° C | 61% | 1006.5 hPa | - | - | - | - |
| 1777278185 | 32.78° C | 60% | 1006.4 hPa | - | - | - | - |
| 1777276985 | 32.78° C | 60% | 1006.3 hPa | - | - | - | - |
| 1777275785 | 32.78° C | 60% | 1006.2 hPa | - | - | - | - |
| 1777274585 | 32.78° C | 61% | 1006 hPa | - | - | - | - |
| 1777273385 | 33.33° C | 60% | 1006.1 hPa | - | - | - | - |
* Rain since midnight (hover to see other rain measurements)
** Current wind speed in m/s (hover to see current wind gust speed)